Stephen Ross

Chefscout - Harrogate Town
21 Feb 2027
Sonntag
Verarbeitung

Persönlichkeit

Anpassungsfähigkeit (12) Ehrgeiz (14) Kontroverse (5) Loyalität (1) Druck (7) Professionalität (8) Fairness (5) Temperament (13)

Profil

Trainerstil Demokratisch
Lizenz Kontinentale C
Entschlossenheit 4
Menschenführung 10
Motivation 6
Disziplin 7
Arbeitszufriedenheit
77%
Ermüdung
0%
Rolle Chefscout
Gehalt 11.8K p/W
Vertrag 14.03.2029

Leistung

Verhalten Gut
Trainingseffektivität
21%
Spielerentwicklung
30%
Verletzungsprävention
35%
Taktische Umsetzung
35%

Letzte Ereignisse

Spieler begutachtet 14T her
Nahm an einer Scouting-Besprechung teil 14T her
Sprach sich gegen ein Transferziel aus 14T her
Spieler begutachtet 14T her
Spieler begutachtet 14T her
Spieler begutachtet 14T her
Spieler begutachtet 14T her
Spieler begutachtet 14T her

Aktuell beobachtet

151
Spieler Verein Status Fähigkeit Vertrauen Beobachtet Zuletzt beobachtet Letzte Stimme
Junior Kemajou-Dimabi Fauve Azur Elite Aktiv 113 / 73 40% 3 06.02.2027 -
Jacobo Alcalde SKA Khabarovsk Aktiv 77 / 107 40% 1 06.02.2027 -
Marcelo Sliema Wanderers Aktiv 77 / 70 40% 1 05.02.2027 -
Mésaque Djú Portimonense Aktiv 108 / 101 40% 1 05.02.2027 -
Daniil Kondrakov KDV Tomsk Aktiv 103 / 108 40% 1 04.02.2027 -
Josh Woods Accrington Stanley Aktiv 88 / 73 40% 1 04.02.2027 -
Andrii Boriachuk Nyva Aktiv 92 / 104 40% 3 03.02.2027 -
Daniel Udoh Salford City Aktiv 117 / 95 40% 2 03.02.2027 -
Paul Glatzel Swindon Town Aktiv 88 / 94 40% 2 02.02.2027 -
Bohdan Mohylnyi Inhulets Aktiv 77 / 99 40% 2 01.02.2027 -
Tyrese Shade Burton Albion Aktiv 101 / 103 40% 1 01.02.2027 -
Vinicius Baiano Naxxar Lions Aktiv 86 / 80 40% 3 31.01.2027 -
Anton Salabai Kolos Aktiv 92 / 112 40% 2 29.01.2027 -
Wasiu Jimoh Police Union Aktiv 102 / 79 40% 1 29.01.2027 -
Bruno Gomes Valletta Aktiv 104 / 99 40% 2 27.01.2027 -
Samuel Amoah Liberty Professionals Aktiv 80 / 99 40% 1 27.01.2027 -
Samuel Tetteh Wa All Stars Abgelehnt 90 / 105 40% 4 26.01.2027 Ablehnen
Brandon Hanlan Doncaster Rovers Aktiv 96 / 92 40% 2 26.01.2027 -
Badr Mousa Petrojet Aktiv 81 / 76 40% 1 25.01.2027 -
Danylo Honcharuk Probiy Aktiv 100 / 98 40% 2 23.01.2027 -
Elliott List Northampton Town Aktiv 94 / 85 40% 1 23.01.2027 -
Mo Dauda Portimonense Aktiv 99 / 92 40% 1 22.01.2027 -
Lewis McCann Fleetwood Town Aktiv 86 / 92 40% 1 21.01.2027 -
Abdi Ineza Ghazl El Mahalla Aktiv 73 / 79 40% 1 21.01.2027 -
Denis Rubanov Dinamo Stavropol Aktiv 77 / 84 40% 1 20.01.2027 -
Bohdan Boichuk Bukovyna Aktiv 97 / 122 40% 2 19.01.2027 -
Daniil Agureev Amkar Aktiv 75 / 92 40% 1 16.01.2027 -
Nikita Pogrebnev Ryazan Aktiv 80 / 75 40% 1 16.01.2027 -
Kwadwo Obeng Junior Heart of Lions Aktiv 107 / 92 40% 1 15.01.2027 -
Denys Rezepov Nyva Aktiv 89 / 86 40% 1 15.01.2027 -
Ivan Bendera Epicentr Aktiv 109 / 107 40% 2 11.01.2027 -
Andrii Riznyk Ahrobiznes Aktiv 88 / 102 40% 1 08.01.2027 -
Robert Murić Floriana Aktiv 90 / 107 40% 4 29.12.2026 -
Georgi Minchev Lokomotiv Sofia Aktiv 101 / 100 40% 1 28.12.2026 -
Alejandro Melo Temperley Aktiv 118 / 104 40% 1 28.12.2026 -
Ismaïl Ouro-Agoro Al Gaish Aktiv 115 / 121 40% 1 26.12.2026 -
Lamine Diakité Djoliba Aktiv 88 / 89 40% 1 24.12.2026 -
Rhys Browne Barnet Aktiv 92 / 91 40% 1 24.12.2026 -
Oleh Kozhushko Bukovyna Aktiv 98 / 98 40% 2 20.12.2026 -
Vladyslav Vakula Obolon Aktiv 117 / 109 40% 1 20.12.2026 -
Moses Twum Haras El Hodoud Aktiv 98 / 90 40% 1 19.12.2026 -
Samson Obi Katsina United Aktiv 95 / 100 40% 1 19.12.2026 -
Sebastian Soto ES Ben Aknoun Aktiv 88 / 85 40% 1 17.12.2026 -
Paschal Durugbor Warri Wolves Aktiv 110 / 99 40% 1 17.12.2026 -
Thomas Agyepong Berekum Chelsea Aktiv 110 / 95 40% 2 16.12.2026 -
Mohamed El Shami El Masry Aktiv 89 / 86 40% 1 12.12.2026 -
Maksym Hirnyi Probiy Aktiv 95 / 101 40% 1 12.12.2026 -
Gustavo Rigazzi Metalist Aktiv 68 / 104 40% 1 10.12.2026 -
Danila Shilov Dinamo Stavropol Abgelehnt 113 / 92 40% 2 07.12.2026 Mehr Infos nötig
Maksym Voitikhovskyi Bukovyna Abgelehnt 113 / 116 40% 1 07.12.2026 Mehr Infos nötig
Lucas González Estudiantes Aktiv 106 / 123 40% 2 06.12.2026 -
Jesús Molina Chelyabinsk Aktiv 86 / 70 40% 2 06.12.2026 -
Rijad Kobiljar Vllaznia Shkodër Aktiv 115 / 114 40% 1 04.12.2026 -
Diego Andrada Segesta Aktiv 84 / 80 40% 3 03.12.2026 -
Mamudo Moro Berekum Chelsea Aktiv 71 / 83 40% 2 30.11.2026 -
David Žabec Cibalia Aktiv 99 / 87 40% 1 30.11.2026 -
Octavio Bianchi HNK Vukovar 1991 Aktiv 111 / 105 40% 4 29.11.2026 -
Emmanuel Jonas El-Kanemi Warriors Aktiv 86 / 109 40% 1 27.11.2026 -
Michael Okoro Katsina United Aktiv 74 / 96 40% 1 27.11.2026 -
Victor Mbaoma Tusker Aktiv 83 / 83 40% 2 26.11.2026 -
Kingsley Eduwo El Masry Aktiv 95 / 121 40% 2 25.11.2026 -
Okardi Inikurogha Bayelsa United Aktiv 68 / 91 40% 3 24.11.2026 -
Naledi Hlongwane Victoria United Aktiv 100 / 94 40% 1 22.11.2026 -
Carlos Fernández Hamrun Spartans Aktiv 98 / 98 40% 1 22.11.2026 -
Stefan Vukić Rudes Aktiv 118 / 97 40% 2 21.11.2026 -
Maxim Chikanchi Sibir Aktiv 88 / 88 40% 1 21.11.2026 -
Maxim Kutovoy Salyut Aktiv 73 / 101 40% 1 20.11.2026 -
Gonzalo Berterame Morón Aktiv 128 / 101 40% 1 20.11.2026 -
Noah Lundström Gefle Aktiv 102 / 73 40% 1 19.11.2026 -
George Lloyd Grodig Aktiv 81 / 98 40% 2 18.11.2026 -
Wladimir Cid NK Zavrc Aktiv 98 / 67 40% 2 18.11.2026 -
Razvan Marin Pandurii Aktiv 110 / 121 40% 1 16.11.2026 -
Jurica Poldrugač Rudes Aktiv 90 / 90 40% 2 14.11.2026 -
Chisom Orji Warri Wolves Aktiv 82 / 99 40% 3 10.11.2026 -
Mykola Kovtaliuk Botosani Aktiv 94 / 82 40% 2 10.11.2026 -
Brian Blando Agropecuario Argentino Aktiv 109 / 95 40% 1 08.11.2026 -
Tomás Bolzicco Chaco For Ever Aktiv 101 / 115 40% 2 06.11.2026 -
Luan Santos Imotski Aktiv 71 / 89 40% 1 06.11.2026 -
Silas Nwankwo Police Union Aktiv 102 / 93 40% 2 05.11.2026 -
Alexandr Dolgov Amkar Aktiv 75 / 71 40% 1 05.11.2026 -
Oriola Sunday Omiya Ardija Aktiv 88 / 78 40% 1 29.10.2026 -
Ibrahim Yahaya Barau Aktiv 73 / 108 40% 1 27.10.2026 -
Gonzalo Flores Almirante Brown Aktiv 127 / 133 40% 1 27.10.2026 -
Roman Kuzmyn Ahrobiznes Aktiv 84 / 97 40% 1 26.10.2026 -
Lucas Cano All Boys Aktiv 104 / 101 40% 2 24.10.2026 -
Samuel Ayanrinde Kenya Police Aktiv 69 / 65 40% 1 24.10.2026 -
Suraju Lawal Abia Warriors Aktiv 84 / 103 40% 1 23.10.2026 -
Bogdan Petrović TSC Aktiv 98 / 99 40% 1 23.10.2026 -
Osman Partey BA All Stars Aktiv 110 / 114 40% 1 22.10.2026 -
Lautaro Urtasún Grodig Aktiv 79 / 76 40% 1 22.10.2026 -
Tosin Olawale El-Kanemi Warriors Aktiv 88 / 109 40% 2 21.10.2026 -
Maren Kefas Plateau United Aktiv 74 / 89 40% 1 21.10.2026 -
Jhonathan Caicedo Arda Aktiv 81 / 80 40% 1 20.10.2026 -
Somila Ntsundwana Bidvest Wits Aktiv 78 / 105 40% 1 19.10.2026 -
Ignacio Pereira Racing Aktiv 94 / 124 40% 1 18.10.2026 -
Bonginkosi Dlamini Polokwane City Aktiv 86 / 82 40% 1 17.10.2026 -
Matías Samaniego Talleres Aktiv 90 / 88 40% 1 17.10.2026 -
Nicolás Molina Temperley Aktiv 125 / 112 40% 1 16.10.2026 -
Nahuel Gelos Miramar Misiones Aktiv 115 / 115 40% 1 15.10.2026 -
Darío Rostagno Estudiantes Aktiv 90 / 118 40% 1 12.10.2026 -
Chineme Chinonso Ikorodu City Aktiv 80 / 83 40% 1 11.10.2026 -
Javier Martínez Almirante Brown Aktiv 129 / 102 40% 1 11.10.2026 -
Emiliano Marcondes OB Aktiv 102 / 99 40% 1 09.10.2026 -
Marcos Machado Mitre Aktiv 114 / 118 40% 1 07.10.2026 -
Ifeagwu Ojukwu Spartaks Aktiv 78 / 81 40% 1 07.10.2026 -
Joe Abrigo Palestino Aktiv 96 / 123 40% 1 06.10.2026 -
Stephen Chukwude Bendel Insurance Aktiv 105 / 78 40% 1 05.10.2026 -
Sebastián Guerrero Fenix Aktiv 103 / 114 40% 1 05.10.2026 -
James Kinyanjui AFC Leopards Aktiv 95 / 88 40% 1 08.09.2026 -
Oke Kayode Bendel Insurance Aktiv 113 / 98 40% 1 08.09.2026 -
Abubakar Garba Nasarawa United Aktiv 69 / 97 40% 1 07.09.2026 -
Sebastián Romero NK Zavrc Aktiv 86 / 100 40% 1 07.09.2026 -
James Emo Rangers International Aktiv 76 / 84 40% 1 06.09.2026 -
Luciano Inverso Rentistas Aktiv 103 / 109 40% 1 06.09.2026 -
Alejandro Samudio Nacional Aktiv 114 / 92 40% 1 05.09.2026 -
Suleiman Abdullahi Military Production Aktiv 79 / 73 40% 1 05.09.2026 -
Brandon Caicedo Atletico Bucaramanga Aktiv 103 / 87 40% 1 04.09.2026 -
Jules-Anthony Vilsaint Toronto FC Aktiv 83 / 121 40% 1 03.09.2026 -
Sebastián de Marco Fenix Aktiv 86 / 109 40% 1 03.09.2026 -
Alexander González Boston River Aktiv 122 / 123 40% 1 01.09.2026 -
Liam Kelly Rotherham United Aktiv 101 / 92 48% 1 31.08.2026 -
Cristian Rivas Bogota Aktiv 108 / 86 40% 1 29.08.2026 -
Juan Moreira Rentistas Aktiv 105 / 85 40% 1 28.08.2026 -
Thokozani Khumalo Golden Arrows Aktiv 111 / 118 40% 1 28.08.2026 -
Jhoao Rodríguez Deportes Quindio Aktiv 99 / 97 40% 1 27.08.2026 -
José Rondón Zulia Aktiv 79 / 83 40% 1 25.08.2026 -
Sam Finley Tranmere Rovers Aktiv 93 / 84 48% 1 24.08.2026 -
Johnson Amuzu Berekum Chelsea Aktiv 104 / 81 40% 1 24.08.2026 -
Jere Vrcić Birkirkara Aktiv 80 / 98 40% 1 23.08.2026 -
Róyner Benítez Aguilas Doradas Aktiv 99 / 120 40% 1 20.08.2026 -
Eric Kapaito Tusker Aktiv 68 / 98 40% 1 20.08.2026 -
Matías Núñez Atenas Aktiv 100 / 81 40% 1 19.08.2026 -
Kevin Méndez Union La Calera Aktiv 90 / 104 40% 1 19.08.2026 -
Hamza Issah Hearts of Oak Aktiv 84 / 73 40% 1 18.08.2026 -
Sédé Dion Golden Arrows Aktiv 112 / 100 40% 1 16.08.2026 -
Saidu Salisu Barau Aktiv 84 / 88 40% 1 14.08.2026 -
Uroš Đuranović Sliema Wanderers Aktiv 97 / 105 40% 1 13.08.2026 -
Boniface Omondi Kakamega Homeboyz Aktiv 86 / 81 40% 1 12.08.2026 -
Douglas Jardel Tacuarembo Aktiv 92 / 112 40% 1 11.08.2026 -
Ged Garner Newport County Aktiv 92 / 84 48% 1 10.08.2026 -
Fernandinho Sliema Wanderers Aktiv 98 / 82 40% 1 10.08.2026 -
Harry McKirdy Admira Wacker Aktiv 79 / 86 40% 1 10.08.2026 -
Benard Mundi Ikorodu City Aktiv 87 / 65 40% 1 08.08.2026 -
Luciano Batista Cerrito Aktiv 85 / 82 40% 1 06.08.2026 -
Marcos Camarda Santiago Wanderers Aktiv 107 / 102 40% 1 06.08.2026 -
Rodrigo Rivero Wanderers Aktiv 121 / 118 40% 1 05.08.2026 -
Cristian Núñez Huracán Aktiv 112 / 124 40% 1 05.08.2026 -
Sello Jaftha Bidvest Wits Aktiv 94 / 96 40% 1 04.08.2026 -
Pedro Soma San Diego Football Club Aktiv 107 / 100 40% 1 04.08.2026 -
Cristian Barros Cerro Aktiv 103 / 117 40% 1 01.08.2026 -
Ruyery Blanco Alianza Petrolera Aktiv 101 / 85 40% 1 01.08.2026 -